UmKA 1 (RS40S)
1 57172U 23091G   26018.57942466  .00006779  00000-0  32927-3 0  9992
2 57172  97.5286  77.8884 0011939 282.5562  77.4337 15.18724165141283
CubeBel-2 (EU11S)
1 57175U 23091K   26018.60724272  .00010836  00000-0  43510-3 0  9991
2 57175  97.5282  80.7483 0009367 284.1849  75.8347 15.25105395141478
RS-38S
1 57189U 23091Z   26018.65763765  .00014450  00000-0  48970-3 0  9992
2 57189  97.5309  85.5710 0007036 238.9184 121.1367 15.30644337141779
SONATE-2
1 59112U 24043Q   26018.67068351  .00027686  00000-0  54159-3 0  9990
2 59112  97.5342 161.3694 0008763  34.2687 325.9126 15.47359117104684
MO-122
1 60209U 24125G   26018.57980741  .00032906  00000-0  60720-3 0  9997
2 60209  97.2491 234.0442 0015439  51.3907 308.8724 15.48912865 86305
GRBBeta
1 60237U 24128C   26018.56047172  .00003856  00000-0  27548-3 0  9995
2 60237  61.9906  20.7038 0054869 103.6912 257.0297 15.05139111 83735
Curium One
1 60242U 24128H   26018.56600605  .00007523  00000-0  46294-3 0  9991
2 60242  61.9800  14.6529 0054722 100.1673 260.5600 15.09595540 83840
ROBUSTA-3A
1 60243U 24128J   26018.38750323  .00007798  00000-0  48847-3 0  9995
2 60243  61.9876  16.9859 0054971  97.6635 263.0707 15.08898418 83798
CatSat
1 60246U 24125J   26018.14396995  .00036646  00000-0  79996-3 0  9993
2 60246  97.2271 230.2081 0032439  17.2452 342.9891 15.43549154 84139
HYPERVIEW-1G (RS66S)
1 61772U 24199AP  26018.61569579  .00044606  00000-0  75540-3 0  9997
2 61772  97.3172 253.6010 0011621  99.5242 260.7324 15.51346865111329
AO-123
1 61781U 24199AY  26018.63229381  .00010031  00000-0  31761-3 0  9995
2 61781  97.3222 248.6957 0015796 120.0172 240.2640 15.32822206110991
ZIMSAT 2
1 61783U 24199BA  26018.11869795  .02288400  69552-2  19355-2 0  9991
2 61783  97.2921 258.6284 0005175  95.5459 264.6418 16.15414394114776
HADES-R (SO-124)
1 62690U 25009CK  26018.22348089  .00418722  00000-0  23172-2 0  9993
2 62690  97.3762 107.7003 0005600 290.3148  69.7517 15.78442444 56497
HYDRA-T
1 62692U 25009CM  26018.50067407  .00652806  00000-0  25330-2 0  9999
2 62692  97.3733 108.3960 0006742 289.7504  70.3039 15.85567360 56560
JINJUSat 1B
1 63210U 25052A   26018.14591961  .00015867  00000-0  58249-3 0  9997
2 63210  97.4190 275.1069 0001520 262.5675  97.5392 15.28025929 47149
NUSHSAT 1
1 63211U 25052B   26018.24432054  .00018872  00000-0  66536-3 0  9993
2 63211  97.4172 275.3822 0001417 275.4101  84.6977 15.29315005 47178
TEVEL2-4
1 63213U 25052D   26018.65530671  .00017409  00000-0  62866-3 0  9991
2 63213  97.4092 275.2645 0001257 327.8315  32.2848 15.28547279 47225
TEVEL2-5
1 63214U 25052E   26018.13902267  .00017215  00000-0  62380-3 0  9995
2 63214  97.4092 274.7327 0001343 329.6379  30.4783 15.28436698 47144
TEVEL2-6
1 63215U 25052F   26018.60572389  .00016756  00000-0  60784-3 0  9991
2 63215  97.4092 275.1843 0001353 325.9188  34.1965 15.28407154 47217
TEVEL2-1
1 63217U 25052H   26018.65667759  .00016552  00000-0  60703-3 0  9999
2 63217  97.4071 275.0140 0001961 341.0024  19.1142 15.28047905 47212
TEVEL2-3
1 63218U 25052J   26018.45883227  .00017320  00000-0  63460-3 0  9995
2 63218  97.4069 274.8254 0002057 343.0638  17.0533 15.28068923 47183
TEVEL2-2
1 63219U 25052K   26018.65739958  .00016515  00000-0  60565-3 0  9997
2 63219  97.4066 275.0153 0002067 343.0252  17.0918 15.28050182 47214
TEVEL2-9
1 63237U 25052AD  26018.65758735  .00015818  00000-0  60824-3 0  9994
2 63237  97.4130 274.6671 0005970 329.5796  30.5095 15.26477107 47173
TEVEL2-7
1 63238U 25052AE  26018.60989585  .00014928  00000-0  57732-3 0  9994
2 63238  97.4131 274.5857 0006054 330.1494  29.9398 15.26298823 47160
TEVEL2-8
1 63239U 25052AF  26018.22277766  .00015096  00000-0  58443-3 0  9991
2 63239  97.4132 274.1847 0006105 332.7301  27.3617 15.26261763 47102
HYDRA-W
1 63490U 25052BL  26018.24476511  .00085881  00000-0  16507-2 0  9994
2 63490  97.4035 277.7072 0004975 333.2508  26.8484 15.47616445 47357
HADES-ICM (SO-125)
1 63492U 25052BN  26018.23044757  .00070280  00000-0  14909-2 0  9999
2 63492  97.4050 277.2971 0005927 332.6629  27.4307 15.44792585 47329
Dragonfly
1 65729U 98067XH  26017.97511711  .00461592  93143-4  13780-2 0  9999
2 65729  51.6195 307.9110 0007896 134.3438 225.8217 15.91776246 18896
RSP-03
1 65732U 98067XL  26017.98286435  .00230935  00000-0  11111-2 0  9993
2 65732  51.6247 310.2616 0005730 112.8259 247.3349 15.81422986 18874
GHS-01
1 65733U 98067XM  26018.26911067  .01674902  21642-2  16376-2 0  9994
2 65733  51.6192 303.8460 0007471 164.4307 195.6938 16.11253535 18987
BOTAN
1 65942U 98067XP  26018.18611271  .00164107  00000-0  11723-2 0  9995
2 65942  51.6263 313.9028 0005006 124.5363 235.6108 15.72717646 15582
CEVROSAT1
1 66309U 25248S   26018.51376695  .00004246  00000-0  21469-3 0  9995
2 66309  45.4037 203.1842 0003614 275.3499  84.6975 15.18615395 11748
SPIRONE
1 66657U 25274H   26018.54911836  .00002475  00000-0  24505-3 0  9991
2 66657  97.7418 310.1336 0012990 145.4137 214.7930 14.92691768  7894
K-HERO
1 66660U 25274L   26018.53135448  .00001894  00000-0  18649-3 0  9997
2 66660  97.7424 310.1611 0014756 150.7454 209.4595 14.93179700  7890
SNUGLITE-III DURI
1 66661U 25274M   26018.32558921  .00001604  00000-0  15828-3 0  9995
2 66661  97.7420 309.9677 0015314 152.7836 207.4190 14.93298957  7864
SilverSat
1 66909U 98067XV  26017.85590617  .00082147  00000-0  10914-2 0  9996
2 66909  51.6304 322.2122 0003736  82.9581 277.1836 15.57482003  7238
SAKHACUBE-CHOLBON
1 67290U 25313AU  26018.46194931  .00009932  00000-0  44352-3 0  9996
2 67290  97.4110  95.6035 0010535 155.8769 204.2963 15.21507367  3186
QMR-KWT
1 67291U 25313AV  26018.46135770  .00013746  00000-0  61098-3 0  9997
2 67291  97.4110  95.6043 0010408 155.9509 204.2216 15.21585775  3188
IO-86
1 40931U          25360.30710720  .00000000  00000-0  12800-3 0    00
2 40931   6.0006 332.5373 0012733 338.8432   8.1437 14.79075515    01
